Regional Weather Roundup
Issued by NWS

Home | Current Version | Previous Version | Graphics & Text | Print | Product List | Glossary On
Versions: 1 2 3 4 5 6 7 8 9 10 11 12 13 14 15 16 17 18 19 20 21 22 23 24 25 26 27 28 29 30 31 32 33 34 35 36 37 38 39 40 41 42 43 44 45 46 47 48 49 50
000
ASUS43 KDMX 190906
RWRIA

WEATHER ROUNDUP FOR IOWA
NATIONAL WEATHER SERVICE DES MOINES IA
300 AM CST FRI JAN 19 2018

NOTE: "FAIR" INDICATES FEW OR NO CLOUDS BELOW 12,000 FEET WITH NO
SIGNIFICANT WEATHER AND/OR OBSTRUCTIONS TO VISIBILITY.

* - THESE STATIONS ARE NOT NWS STATIONS...THUS NOT UNDER NWS
QUALITY CONTROL.  THEY ALSO DO NOT REPORT WEATHER SUCH
AS PRECIPITATION OR FOG.

IAZ001>003-012>014-020>022-031>034-043>046-191000-
   NORTHWEST IOWA

CITY           SKY/WX    TMP DP  RH WIND       PRES   REMARKS
CARROLL *      CLOUDY    32  25  74 SW16      29.78S WCI  21
CHEROKEE *     CLOUDY    26  24  93 S5        29.76F WCI  20
DENISON *      CLOUDY    30  23  74 S7        29.81S WCI  23
LE MARS *      CLOUDY    27  25  93 S7        29.75F WCI  19
ORANGE CITY *  CLOUDY    27  25  93 S6        29.73F WCI  20
SHELDON *      CLOUDY    27  27 100 S8        29.72F WCI  18
SIOUX CITY     CLOUDY    24  22  91 SE10      29.77F WCI  14
SPENCER        CLOUDY    27  23  85 SW6       29.75F WCI  20
STORM LAKE *   CLOUDY    28  25  86 SW13      29.75F WCI  18
$$

IAZ055>058-069>071-079>083-090>094-191000-
   SOUTHWEST IOWA

CITY           SKY/WX    TMP DP  RH WIND       PRES   REMARKS
ATLANTIC *     CLOUDY    30  25  80 S12       29.83F WCI  21
AUDUBON *      CLOUDY    30  25  80 S8        29.82F WCI  23
CLARINDA *     CLOUDY    30  25  80 S9        29.89F WCI  22
COUNCIL BLFS * CLOUDY    34  27  75 S12       29.82S WCI  25
CRESTON *      CLOUDY    32  25  74 SW14      29.86F WCI  22
HARLAN  *      CLOUDY    28  25  86 S10       29.85F WCI  19
LAMONI         CLOUDY    30  21  69 S13       29.89F WCI  20
RED OAK *      CLOUDY    28  23  80 S7        29.86S WCI  21
SHENANDOAH *   CLOUDY    34  27  75 SW9       29.87F WCI  26
$$

IAZ047>049-059>061-072>074-084-191000-
   CENTRAL IOWA

CITY           SKY/WX    TMP DP  RH WIND       PRES   REMARKS
AMES           CLOUDY    28  23  81 S6        29.82F WCI  22
ANKENY *       CLOUDY    27  21  80 CALM      29.85F
BOONE *        CLOUDY    30  23  74 SW13      29.79F WCI  20
CHARITON *     CLOUDY    30  21  69 SW12      29.88F WCI  21
DES MOINES     CLOUDY    31  22  69 SW7       29.84F WCI  24
GRINNELL*      CLOUDY    28  22  77 S12       29.86F WCI  18
KNOXVILLE *    CLOUDY    32  21  64 SW13      29.85F WCI  22
MARSHALLTOWN   CLOUDY    27  21  78 SW9       29.82F WCI  18
NEWTON *       CLOUDY    28  21  74 S12       29.85F WCI  18
PELLA *        CLOUDY    31  22  69 SW8       29.89F WCI  23
PERRY *          N/A     24  21  88 S9        29.81F WCI  15
$$

IAZ004>006-015-016-023>025-035-036-191000-
   NORTH CENTRAL IOWA

CITY           SKY/WX    TMP DP  RH WIND       PRES   REMARKS
ALGONA *       CLOUDY    23 N/A N/A S12       29.76S WCI  12
CLARION *      CLOUDY    21  21 100 S7        29.80R WCI  13
ESTHERVILLE    CLOUDY    30  26  85 S8        29.73F WCI  22
FORT DODGE *   CLOUDY    27  22  81 SW8       29.79F WCI  19
MASON CITY     CLOUDY    28  20  71 SW16      29.78S WCI  16
FOREST CITY *    N/A     23  21  93 CALM      29.77F
WEBSTER CITY * CLOUDY    25  21  86 S8        29.78F WCI  16
IOWA FALLS *     N/A     27  23  82 S7        29.80F WCI  20
$$

IAZ007>011-017>019-026>030-037>042-050>054-066-191000-
   NORTHEAST IOWA

CITY           SKY/WX    TMP DP  RH WIND       PRES   REMARKS
CEDAR RAPIDS     N/A     26  19  74 S8        29.87S WCI  18
CHARLES CITY *   N/A     23  23 100 S9        29.80S WCI  13
CLINTON *        N/A     25  20  81 SW8       29.92F WCI  16
DECORAH *        N/A     27  21  80 SW7       29.78F WCI  19
DUBUQUE          N/A     24  18  77 SW10      29.85F WCI  14
MONTICELLO *     N/A     27  19  74 S5        29.87F WCI  21
OELWEIN *        N/A     23  23 100 S10       29.82F WCI  12
WATERLOO         N/A     23  19  85 SE6       29.81F WCI  16
$$

IAZ064-065-067-068-078-191000-
   EAST CENTRAL IOWA

CITY           SKY/WX    TMP DP  RH WIND       PRES   REMARKS
DAVENPORT        N/A     31  20  63 SW14      29.93S WCI  21
IOWA CITY        N/A     27  18  69 S5        29.92S WCI  22
MT. PLEASANT * CLOUDY    30  21  69 SW14      29.94F WCI  20
MUSCATINE *      N/A     30  21  69 S8        29.94S WCI  23
QUAD CITIES      N/A     30  20  66 SW6       29.93S WCI  24
$$

IAZ062-063-075>077-085>089-095>099-191000-
   SOUTHEAST IOWA

CITY           SKY/WX    TMP DP  RH WIND       PRES   REMARKS
BURLINGTON     CLOUDY    30  20  66 SW13      29.94F WCI  20
FAIRFIELD *    CLOUDY    30  19  64 S12       29.91F WCI  21
FORT MADISON * CLOUDY    30  21  69 S10       29.95F WCI  21
KEOKUK *       CLOUDY    32  21  64 SW13      29.96S WCI  22
OSKALOOSA *      N/A     30  22  72 SW9       29.89F WCI  22
OTTUMWA        CLEAR     34  21  59 SW12      29.89F WCI  25
WASHINGTON *   CLOUDY    28  23  80 SW13      29.92F WCI  18
$$

ABBREVIATIONS USED IN REMARKS
   TC - TEMPERATURES IN CELSIUS
  WCI - WIND CHILL INDEX
   HX - HEAT INDEX
  VSB - VISIBILITY
$$





USA.gov is the U.S. government's official web portal to all federal, state and local government web resources and services.